Location: Bats
(43.6587°N, 0.4584°W)
Time: 16:11:01
(UTC+00:00)

ARIANE 5 R/B - Pass Details

Date: 12 January 2026
Orbit: 746 x 793 km, 98.8° (Epoch: 18 February)

Event Time Altitude Azimuth Distance (km) Brightness Sun altitude
Rises 18:05:57 0° 177° (S) 3,271 5.9 -13.9°
Reaches altitude 10° 18:08:19 10° 182° (S) 2,350 5.3 -14.4°
Maximum altitude 18:13:23 54° 259° (W) 963 3.4 -15.2°
Drops below altitude 10° 18:18:31 10° 337° (NNW) 2,367 5.1 -16.1°
Sets 18:20:54 0° 342° (NNW) 3,298 5.8 -16.5°
